Regional Weather Roundup
Issued by NWS Little Rock, AR

Home | Current Version | Previous Version | Graphics & Text | Print | Product List | Glossary On
Versions: 1 2 3 4 5 6 7 8 9 10 11 12 13 14 15 16 17 18 19 20 21 22 23 24 25 26 27 28 29 30 31 32 33 34 35 36 37 38 39 40 41 42 43 44 45 46 47 48 49 50
000
ASUS44 KLZK 051705
RWRLZK

WEATHER ROUNDUP FOR ARKANSAS
NATIONAL WEATHER SERVICE LITTLE ROCK AR
1100 AM CST THU MAR 05 2015

NOTE: "FAIR" INDICATES FEW OR NO CLOUDS BELOW 12,000 FEET WITH NO
SIGNIFICANT WEATHER AND/OR OBSTRUCTIONS TO VISIBILITY.

ARZ001-003-010-029-051800-
NORTHWEST ARKANSAS

CITY           SKY/WX    TMP DP  RH WIND       PRES   REMARKS
FAYETTEVILLE   SUNNY     29   8  41 N7        30.55R WCI  22
FORT SMITH     SUNNY     32  13  45 CALM      30.60F
HARRISON       SUNNY     29   8  41 N10       30.52R WCI  20
BENTONVILLE    SUNNY     28   7  40 N8        30.55S WCI  20
ROGERS         SUNNY     30  13  49 NE9       30.54S WCI  22
SILOAM SPGS    SUNNY     28  12  50 N8        30.56S WCI  20
HIGHFILL       SUNNY     30  12  47 N8        30.54S WCI  22
SPRINGDALE     SUNNY     28  10  47 N6        30.56S WCI  22
$$

ARZ004-005-016-051800-
NORTH CENTRAL ARKANSAS

CITY           SKY/WX    TMP DP  RH WIND       PRES   REMARKS
BATESVILLE     SUNNY     30  10  43 NW9G20    30.55R WCI  22
FLIPPIN        SUNNY     30   9  40 N16G24    30.54S WCI  19
MTN HOME       SUNNY     28   8  43 N15G23    30.53R WCI  16
$$

ARZ040-041-051800-
WEST CENTRAL ARKANSAS

CITY           SKY/WX    TMP DP  RH WIND       PRES   REMARKS
MENA           SUNNY     34  16  47 N9G17     30.55R WCI  26
MOUNT IDA      SUNNY     33  16  49 VRB5      30.53S WCI  29
$$

ARZ009-017-025-026-028-051800-
NORTHEAST ARKANSAS

CITY           SKY/WX    TMP DP  RH WIND       PRES   REMARKS
CORNING          N/A     27  10  50 NE5       30.55S WCI  21
JONESBORO      FLURRIES  27   8  44 NW13      30.54R WCI  16
NEWPORT        SUNNY     28  13  53 N7        30.57R WCI  21
WALNUT RIDGE   SUNNY     27  10  50 N6        30.55R WCI  20
BLYTHEVILLE    MOSUNNY   26  18  71 N15       30.54R WCI  14
$$

ARZ022-023-033-042-044-051800-
CENTRAL ARKANSAS

CITY           SKY/WX    TMP DP  RH WIND       PRES   REMARKS
LITTLE ROCK    MOSUNNY   32  12  43 N15       30.58R WCI  22
N LITTLE ROCK  MOSUNNY   30  18  61 N14G21    30.58R WCI  19
SEARCY         SUNNY     33  10  38 N12       30.58  WCI  24
HOT SPRINGS    SUNNY     31  14  49 NE12      30.56S WCI  22
RUSSELLVILLE   SUNNY     33   8  35 N13       30.57R WCI  24
CLINTON        FAIR      32   5  32 N10G21    30.57R WCI  24
$$

ARZ036-051800-
EAST ARKANSAS

CITY           SKY/WX    TMP DP  RH WIND       PRES   REMARKS
WEST MEMPHIS   PTSUNNY   25  16  68 N16       30.54R WCI  12
$$

ARZ050-053-066-070-073-051800-
SOUTHWEST ARKANSAS

CITY           SKY/WX    TMP DP  RH WIND       PRES   REMARKS
ARKADELPHIA    FAIR      32  24  72 NE9       30.58F WCI  24
TEXARKANA      SUNNY     31  23  72 NE14      30.58R WCI  21
EL DORADO      PTSUNNY   29  21  72 N12G21    30.56R WCI  19
DE QUEEN       SUNNY     34  16  47 NE14      30.57S WCI  25
$$

ARZ056-057-069-051800-
SOUTHEAST ARKANSAS

CITY           SKY/WX    TMP DP  RH WIND       PRES   REMARKS
PINE BLUFF     MOSUNNY   27  15  61 N17G25    30.57S WCI  14
STUTTGART      MOSUNNY   28  16  59 N14       30.57S WCI  17
MONTICELLO     PTSUNNY   29  14  53 N14G22    30.53S WCI  18

$$




USA.gov is the U.S. government's official web portal to all federal, state and local government web resources and services.